Location: Gand�
(15.0971°N, 12.6564°W)
Time: 14:31:50
(UTC+00:00)

CZ-4B R/B - Pass Details

Date: 07 August 2020
Orbit: 486 x 652 km, 97.9° (Epoch: 19 September)

Event Time Altitude Azimuth Distance (km) Brightness Sun altitude
Rises 05:25:11 0° 16° (NNE) 2,960 7.1 -16.6°
Reaches altitude 10° 05:27:27 10° 19° (NNE) 2,040 6.3 -16.1°
Maximum altitude 05:31:52 64° 101° (E) 700 3.5 -15.1°
Drops below altitude 10° 05:36:09 10° 183° (S) 1,971 5.4 -14.2°
Sets 05:38:17 0° 186° (S) 2,851 6.2 -13.7°
